Weather History for KPMP - December, 2011

Change the Weather History Date:

Tuesday, December 13, 2011

  Actual Average Record
Temperature  
Mean Temperature 76 °F -  
Max Temperature 79 °F 79 °F 86 °F (1985)
Min Temperature 73 °F 59 °F 31 °F (1962)
Cooling Degree Days 11    
Growing Degree Days 26 (Base 50)    
Moisture  
Dew Point 66 °F    
Average Humidity 71    
Maximum Humidity 85    
Minimum Humidity 58    
Precipitation  
Precipitation 0.00 in - - ()
Sea Level Pressure  
Sea Level Pressure 30.18 in    
Wind  
Wind Speed 16 mph (ENE)    
Max Wind Speed 21 mph    
Max Gust Speed 28 mph    
Visibility 10 miles    
Events Rain    
Averages and records for this station are not official NWS values.
T = Trace of Precipitation, MM = Missing Value Source: NWS Daily Summary

Daily Weather History Graph

Daily Weather History Graph

Search for Another Location

Airport or City:

Trip Planner

Search our weather history database for the weather conditions in past years. The results will help you decide how hot, cold, wet, or windy it might be!

Date:

Astronomy

Dec. 13, 2011 Rise Set
Actual Time 6:59 AM EST 5:30 PM EST
Civil Twilight 6:33 AM EST 5:55 PM EST
Nautical Twilight 6:04 AM EST 6:24 PM EST
Astronomical Twilight 5:36 AM EST 6:52 PM EST
Moon 8:32 PM EST (12/13) 9:16 AM EST (12/13)
Length of Visible Light 11h 21m
Length of Day
10h 31m
Waning Gibbous, 90% of the Moon is Illuminated
Dec 13
Waning Gibbous
Dec 17
Last Quarter
Dec 24
New
Jan 1
First Quarter
Jan 9
Full

Hourly Weather History & Observations

Time (EST) Temp. Dew Point Humidity Pressure Visibility Wind Dir Wind Speed Gust Speed Precip Events Conditions
12:53 AM 75.0 °F 70.0 °F 84% 30.14 in 10.0 mi East 15.0 mph - 0.00 in Rain Rain
1:53 AM 75.0 °F 69.1 °F 82% 30.13 in 10.0 mi ENE 16.1 mph 24.2 mph 0.00 in Rain Rain
2:53 AM 75.0 °F 69.1 °F 82% 30.13 in 10.0 mi East 18.4 mph 23.0 mph 0.00 in Rain Rain
3:53 AM 75.0 °F 68.0 °F 79% 30.13 in 10.0 mi ENE 16.1 mph 23.0 mph 0.00 in Rain Rain
4:53 AM 73.9 °F 69.1 °F 85% 30.14 in 10.0 mi ENE 16.1 mph 23.0 mph 0.00 in Rain Rain
5:53 AM 75.0 °F 68.0 °F 79% 30.15 in 10.0 mi ENE 16.1 mph 24.2 mph 0.00 in Rain Rain
6:53 AM 75.0 °F 68.0 °F 79% 30.17 in 10.0 mi ENE 17.3 mph 23.0 mph 0.00 in Rain Rain
7:53 AM 75.0 °F 68.0 °F 79% 30.19 in 10.0 mi NE 10.4 mph 20.7 mph 0.00 in   Scattered Clouds
8:53 AM 75.9 °F 69.1 °F 79% 30.21 in 10.0 mi NE 13.8 mph 19.6 mph 0.00 in   Mostly Cloudy
9:53 AM 78.1 °F 66.0 °F 66% 30.23 in 10.0 mi NE 18.4 mph 26.5 mph N/A   Scattered Clouds
10:53 AM 79.0 °F 64.9 °F 62% 30.23 in 10.0 mi NE 17.3 mph - N/A   Scattered Clouds
11:53 AM 79.0 °F 64.9 °F 62% 30.22 in 10.0 mi ENE 18.4 mph - N/A   Scattered Clouds
12:53 PM 79.0 °F 64.9 °F 62% 30.19 in 10.0 mi NE 17.3 mph 24.2 mph N/A   Mostly Cloudy
1:53 PM 79.0 °F 63.0 °F 58% 30.17 in 10.0 mi NE 19.6 mph 25.3 mph N/A   Partly Cloudy
2:53 PM 78.1 °F 64.9 °F 64% 30.16 in 10.0 mi ENE 15.0 mph - N/A   Scattered Clouds
3:53 PM 75.9 °F 66.0 °F 71% 30.16 in 10.0 mi ENE 19.6 mph 27.6 mph N/A   Scattered Clouds
4:53 PM 75.0 °F 64.0 °F 69% 30.17 in 10.0 mi NE 16.1 mph 25.3 mph N/A   Scattered Clouds
5:53 PM 75.0 °F 62.1 °F 64% 30.18 in 10.0 mi NE 18.4 mph 24.2 mph N/A   Partly Cloudy
6:53 PM 73.9 °F 61.0 °F 64% 30.19 in 10.0 mi NE 17.3 mph 27.6 mph N/A   Partly Cloudy
7:53 PM 75.0 °F 64.0 °F 69% 30.20 in 10.0 mi ENE 13.8 mph 21.9 mph N/A   Mostly Cloudy
8:53 PM 75.0 °F 63.0 °F 66% 30.21 in 10.0 mi ENE 20.7 mph 26.5 mph N/A   Partly Cloudy
9:53 PM 75.0 °F 63.0 °F 66% 30.22 in 10.0 mi ENE 15.0 mph 27.6 mph N/A   Partly Cloudy
10:53 PM 73.9 °F 63.0 °F 68% 30.21 in 10.0 mi ENE 16.1 mph 27.6 mph N/A   Partly Cloudy
11:53 PM 73.9 °F 64.0 °F 71% 30.22 in 10.0 mi ENE 13.8 mph 23.0 mph N/A   Mostly Cloudy